CW0630 Weather Reports


time (UTC)temp
C
wind
direction
speed
KPH
gust
KPH
rain 1hr
cm
rain 24hr
cm
rain mn
cm
humidity
%
barometer
mb
20260507230858 12 248 3.2 3.2 0.00 0.20 0.20 88 1009.8
20260507220850 12 244 0.0 3.2 0.00 0.20 0.20 87 1009.8
20260507210916 12 135 4.8 4.8 0.13 0.20 0.20 89 1009.6
20260507200921 12 46 1.6 1.6 0.00 0.08 0.08 82 1010.0
20260507190846 13 49 4.8 4.8 0.00 0.10 0.08 76 1010.4
20260507180845 13 60 0.0 3.2 0.00 0.10 0.08 75 1010.5
20260507170858 13 30 3.2 6.4 0.00 0.10 0.08 78 1011.3
20260507160849 12 355 11.3 11.3 0.05 0.13 0.08 87 1011.9
20260507150855 13 5 17.7 17.7 0.00 0.08 0.03 81 1011.8
20260507140901 13 29 4.8 6.4 0.00 0.23 0.03 79 1011.9
20260507130907 13 15 6.4 9.7 0.00 0.23 0.03 83 1011.7
20260507120847 13 360 8.0 9.7 0.00 0.23 0.03 84 1011.3
20260507110901 13 12 6.4 9.7 0.00 0.23 0.03 82 1011.3
20260507100859 13 360 6.4 11.3 0.00 0.23 0.03 83 1010.5
20260507090853 14 53 8.0 8.0 0.03 0.23 0.03 89 1010.5
20260507080901 16 24 20.9 20.9 0.00 0.20 0.00 89 1010.3
20260507070842 19 323 3.2 3.2 0.00 0.20 0.00 89 1009.5
20260507060907 20 194 4.8 4.8 0.00 0.20 0.00 85 1008.3
20260507050855 20 205 6.4 6.4 0.00 0.20 0.00 85 1009.3
20260507040852 20 212 6.4 6.4 0.00 0.20 0.00 85 1009.3
20260507030855 20 192 6.4 9.7 0.00 0.20 0.20 84 1009.4
20260507020858 20 200 9.7 9.7 0.00 0.20 0.20 84 1009.8
20260507000918 20 211 3.2 8.0 0.00 0.20 0.20 81 1009.8